RH
59 58 72 77 74 79 86 88 82 78 84 95 100 100 99 99 100 100 100 100 100 100 99 93 93 79 63 56 57 49 51 46 70 76 76 81 84 78 74 80 66 65 66
53 52 55 72 75 81 90 78 79 90 85 81 96 98 100 100 100 100 100 100 100 100 100 100 96 93 85 81 72 69 60 62 75 77 79 88 85 81 75 75 67 64 70
48 51 54 51 59 65 69 77 82 87 91 92 96 99 99 99 100 100 100 100 100 99 96 96 98 95 96 97 91 87 85 83 76 74 74 77 86 84 84 70 72 72 64
48 56 61 56 54 58 67 75 78 92 100 100 99 98 100 100 99 100 100 100 100 100 100 99 99 99 96 94 95 94 91 79 78 80 87 95 99 98 81 71 70 65 58
37 47 50 46 53 57 60 65 72 93 100 100 100 100 100 100 100 99 100 98 99 100 100 100 96 92 93 95 96 94 90 99 99 99 99 98 96 93 77 63 58 62 64
40 41 38 41 55 58 58 58 68 86 98 99 99 100 99 100 100 100 99 100 100 100 99 100 100 98 98 99 100 99 98 99 100 100 97 88 76 73 70 70 73 66 60
40 39 41 42 56 61 61 65 69 79 98 100 100 100 100 100 100 100 100 99 99 99 100 100 100 100 100 100 100 100 100 100 99 93 86 80 73 71 74 72 63 55 52
39 38 40 44 53 67 69 72 70 78 88 100 100 99 100 100 100 100 100 100 100 100 99 99 98 99 100 99 99 99 99 92 80 66 66 70 74 70 75 73 71 68 71
39 39 39 49 58 66 80 87 79 89 93 100 100 100 100 100 100 100 100 100 100 100 100 100 99 100 100 98 92 84 84 79 78 75 76 80 74 74 81 81 79 69 76
41 44 45 62 73 84 92 98 98 100 99 99 99 100 100 100 100 100 99 100 100 100 100 100 100 96 98 87 74 74 94 98 80 73 62 57 60 60 58 74 81 64 65
49 45 55 74 89 98 98 98 98 98 99 99 99 100 100 100 100 100 100 99 98 99 100 100 100 93 87 81 72 82 88 92 93 96 99 100 100 98 82 88 91 77 68
50 57 65 92 99 99 99 98 100 96 98 100 100 100 100 100 100 100 100 100 99 96 98 99 100 96 86 81 83 86 84 83 100 100 98 95 94 93 96 96 84 83 78
59 66 87 99 99 99 100 99 95 96 100 100 100 100 100 100 100 100 100 100 99 98 98 100 100 100 98 96 92 89 88 100 96 90 86 88 90 91 98 79 66 65 67
80 99 99 100 99 98 99 99 99 100 100 100 100 100 100 100 100 99 100 99 98 97 98 98 99 100 99 97 100 94 94 90 81 78 78 86 92 85 85 89 88 90 88
100 99 99 100 100 99 99 99 99 99 100 100 100 100 100 100 100 100 99 99 100 99 99 99 99 98 90 88 82 74 74 72 64 68 80 82 78 78 84 89 87 91 84
100 100 100 100 100 100 100 99 99 100 100 99 100 99 100 99 98 98 98 96 97 96 98 96 96 92 84 82 73 66 61 65 69 72 74 74 77 81 85 92 89 88 84
100 99 100 100 99 99 99 99 99 98 98 98 99 99 99 97 99 98 98 98 98 98 95 96 95 93 85 80 76 73 73 74 82 76 77 79 81 83 90 86 88 89 90
100 100 100 99 100 100 98 99 100 96 95 99 99 98 98 98 98 97 97 98 98 98 97 95 95 94 86 82 80 77 77 87 81 84 87 89 93 88 88 83 85 90 86
100 100 100 100 100 98 98 99 99 98 98 97 99 99 99 97 97 97 98 96 96 97 98 98 98 97 91 86 86 85 86 89 90 94 91 96 99 91 88 88 90 92 95
100 100 98 100 100 99 100 99 98 98 97 96 97 98 99 99 97 98 98 98 98 98 99 100 100 100 99 96 94 92 92 94 99 100 100 100 100 99 98 97 97 94 87
99 99 100 100 100 100 100 99 98 98 97 98 98 98 97 96 98 99 98 98 98 99 98 97 96 97 97 94 89 95 96 99 100 100 98 100 100 100 100 100 99 96 92
99 98 100 100 100 100 100 99 99 97 97 96 98 98 96 99 99 99 100 94 87 80 76 75 87 82 76 84 88 93 97 100 100 100 100 99 98 100 100 100 99 93 90
98 100 100 100 100 100 100 100 99 99 98 98 100 100 100 100 100 100 97 86 78 74 71 67 71 72 71 71 71 78 93 98 95 89 87 88 94 100 100 95 94 95 90
99 100 99 99 100 99 100 100 100 98 99 100 100 100 100 100 100 97 84 80 81 80 76 76 73 69 73 76 78 85 94 88 82 79 72 70 95 90 98 100 98 98 99
99 100 100 100 99 99 100 100 99 99 100 100 100 100 100 100 100 96 85 83 84 84 82 77 76 74 73 76 84 90 90 85 75 66 67 73 83 86 98 100 100 99 100
99 99 99 100 100 99 99 100 99 100 100 100 100 100 100 98 94 89 85 81 71 65 67 69 71 75 90 95 95 92 86 76 73 78 82 84 91 100 100 100 100 100 99
Wind_Speed
14 15 17 14 14 14 14 15 14 12 11 10 11 11 13 18 24 28 33 35 34 32 33 38 35 28 23 22 23 24 21 21 11 6 14 17 26 24 22 19 17 14 12
13 12 15 18 17 14 15 18 17 17 12 11 12 11 13 16 20 25 26 27 34 31 34 32 30 32 31 28 24 24 24 20 16 15 13 14 19 24 23 21 17 15 14
16 16 15 16 18 16 19 20 21 23 21 16 13 13 13 12 15 20 22 26 28 34 35 36 36 34 31 31 32 28 24 23 25 18 14 13 14 24 22 19 17 15 12
19 17 17 18 19 21 19 19 21 20 21 20 17 16 15 14 17 20 23 24 25 29 34 36 36 36 33 32 29 28 25 24 20 21 15 16 17 20 23 23 17 14 13
19 19 21 24 23 19 16 16 18 17 18 19 19 18 18 16 19 22 23 27 27 26 27 30 29 31 30 28 28 27 29 23 23 20 17 17 19 23 26 20 18 15 10
17 18 20 22 22 19 17 14 15 15 15 17 19 21 18 20 23 25 27 27 30 32 29 28 30 27 26 23 25 28 31 30 24 18 19 23 22 24 23 21 18 18 9
19 19 18 19 20 22 20 17 15 14 14 17 19 20 20 18 21 27 28 28 29 29 29 27 25 24 23 24 21 20 20 25 29 24 22 22 22 25 23 23 20 17 11
21 20 20 18 20 19 20 17 15 13 14 15 19 19 21 18 18 23 27 27 27 26 26 27 27 24 21 22 23 24 22 20 22 22 25 22 18 22 23 19 16 12 9
19 20 22 20 21 20 19 15 14 13 13 15 17 21 19 18 16 25 29 25 26 27 27 28 27 26 25 27 30 27 22 18 15 13 13 15 17 20 19 18 15 14 7
22 22 23 19 20 20 18 17 14 11 13 13 17 20 19 17 20 28 29 24 25 26 25 24 24 27 28 28 30 30 23 18 20 20 19 18 18 18 17 13 14 13 8
22 24 22 20 20 19 17 16 14 13 12 13 15 17 18 18 23 30 32 30 30 28 27 25 27 29 30 28 27 23 24 25 21 20 18 16 15 14 13 11 11 11 10
25 23 23 21 17 17 16 16 14 13 12 12 13 14 16 19 26 33 31 28 34 35 28 27 30 30 29 27 22 20 23 25 20 19 19 17 16 13 12 12 12 10 8
26 27 24 18 16 17 17 15 14 12 12 13 14 12 15 20 26 29 30 27 32 31 31 32 33 27 25 22 22 23 27 20 19 18 17 16 14 14 14 15 14 10 8
26 18 17 17 16 14 15 14 12 13 13 13 12 13 16 19 23 28 28 33 32 31 34 36 31 27 22 24 25 22 17 16 17 16 14 14 15 15 13 12 11 10 6
16 17 17 15 12 13 13 11 11 15 17 15 17 19 20 20 27 32 33 32 32 36 36 32 28 24 24 22 18 17 16 15 14 14 16 16 15 14 13 13 10 9 8
13 11 12 11 11 10 7 5 5 8 9 13 17 21 21 22 29 33 34 33 37 44 33 29 24 24 23 22 20 18 16 16 15 16 16 15 14 13 11 10 10 10 9
13 11 9 9 7 6 4 3 2 3 2 3 9 16 21 24 34 37 35 38 43 33 27 24 24 24 22 20 20 20 18 17 17 16 14 13 12 10 11 11 11 10 10
12 9 8 6 4 3 3 3 5 6 6 7 8 14 19 31 33 34 37 36 26 20 22 23 23 23 22 20 18 17 17 17 15 14 13 12 11 10 11 13 10 12 12
7 6 5 4 2 3 5 6 7 9 10 10 15 21 29 31 32 36 34 26 22 19 18 18 20 21 20 19 17 14 15 16 16 13 11 10 11 13 12 11 12 12 11
4 4 3 3 4 5 6 8 8 9 12 14 15 19 25 30 26 20 18 20 19 17 18 18 18 19 19 17 16 14 14 13 11 12 12 11 11 11 12 13 11 11 13
5 4 4 4 5 6 7 9 10 10 11 13 14 19 22 20 17 16 17 17 18 17 17 18 18 18 18 16 15 14 13 12 12 11 11 11 11 12 11 10 10 12 14
8 7 6 6 7 7 8 10 11 12 12 14 15 19 21 17 16 15 15 16 16 17 19 21 19 19 19 18 16 13 13 13 13 12 11 11 11 9 9 11 12 13 13
9 7 7 7 8 9 10 10 11 12 13 14 16 16 14 13 15 14 15 17 18 18 19 19 19 19 18 17 15 15 15 14 13 11 11 12 12 11 11 12 12 12 13
10 10 10 9 10 11 11 12 11 13 13 15 16 14 13 13 15 16 19 20 20 19 19 19 18 18 18 16 16 15 14 13 11 11 12 13 11 13 11 11 12 13 13
11 10 11 12 12 12 12 13 13 14 15 15 15 15 14 14 16 17 20 20 20 19 19 20 18 16 14 14 15 15 14 11 11 11 12 13 13 13 12 11 12 12 13
12 11 11 12 12 13 14 15 15 15 16 15 15 16 17 17 19 21 22 21 21 20 20 19 17 15 14 15 15 13 12 11 11 12 12 12 12 11 11 12 12 13 14
Wind_Direction
299 289 278 280 292 306 305 302 305 314 323 311 290 281 253 231 216 192 188 185 183 181 183 189 197 195 183 177 176 168 158 149 136 136 171 171 184 183 181 184 188 176 176
340 321 296 287 285 282 286 291 290 286 294 308 299 280 256 225 209 196 183 176 178 171 177 182 191 181 180 179 177 163 167 171 151 162 166 162 183 185 175 178 180 172 165
340 337 320 318 307 298 287 286 291 286 280 277 276 268 247 242 218 208 200 189 182 175 176 176 177 181 177 171 174 177 181 182 182 162 153 164 158 169 167 170 169 159 162
329 327 318 320 319 314 309 299 293 286 273 265 250 251 244 225 219 210 196 179 174 177 172 172 172 176 182 178 181 187 182 166 159 152 144 153 151 165 168 160 162 167 168
326 321 319 319 315 316 316 308 295 283 272 264 256 246 242 228 212 207 192 180 177 177 179 185 188 190 189 189 180 179 177 170 169 143 140 151 159 163 173 177 178 177 181
310 306 313 315 307 302 304 301 291 283 270 256 258 249 229 230 218 200 193 172 174 178 179 184 184 186 193 204 202 203 198 179 161 157 164 169 172 174 178 177 175 177 189
302 305 308 310 301 294 297 298 293 283 273 260 251 249 245 233 222 203 199 187 183 180 177 178 168 177 183 182 184 185 193 184 177 165 162 175 173 177 174 175 182 186 190
291 304 308 303 300 292 293 294 294 287 273 262 256 251 247 236 215 204 197 190 186 182 179 178 177 173 174 167 160 157 157 169 184 186 183 173 176 170 172 171 169 155 140
280 288 296 297 293 288 285 288 295 288 271 263 263 252 240 233 217 202 195 186 177 172 173 176 174 168 167 163 157 144 135 131 143 159 169 172 175 181 179 166 156 163 165
284 286 295 290 287 281 279 286 294 289 273 270 254 251 244 229 207 203 191 181 158 157 167 169 177 166 161 164 162 155 135 139 146 140 137 142 150 158 167 172 170 172 164
288 295 293 286 287 279 281 282 289 286 277 257 242 240 235 224 204 205 194 184 167 151 151 155 164 164 162 168 170 162 158 149 144 138 136 138 139 144 149 145 152 167 172
292 287 284 283 279 275 273 283 282 273 257 234 226 222 219 211 202 190 193 195 175 160 152 155 161 163 161 165 170 171 166 153 149 147 148 152 152 151 151 147 154 153 149
288 283 278 276 273 276 276 274 275 271 238 205 193 185 185 189 183 184 188 188 170 155 155 154 153 149 154 158 161 161 159 151 152 153 156 157 158 154 150 153 161 160 167
279 267 271 267 268 274 274 271 260 248 216 198 188 176 171 169 167 165 169 165 159 148 144 143 142 144 143 143 143 150 154 156 157 159 159 152 148 151 158 164 171 177 190
261 270 265 260 264 270 265 262 262 258 240 208 199 186 171 173 177 172 161 156 150 146 140 139 141 141 142 145 144 145 150 153 155 156 154 149 156 163 172 182 187 187 217
263 252 256 261 262 257 251 261 263 259 255 236 228 216 192 184 171 166 157 154 150 147 143 144 148 149 155 156 150 147 151 155 156 153 154 161 167 179 185 190 200 210 237
245 254 261 257 245 237 221 199 156 68 91 202 212 199 195 177 168 163 162 155 152 146 144 148 152 159 159 157 157 159 157 161 161 162 167 172 180 188 193 205 216 225 247
240 253 255 249 235 217 180 163 149 134 117 115 155 170 166 157 154 149 149 141 139 144 148 153 157 163 163 161 163 161 158 160 169 175 179 184 188 204 211 220 228 240 252
234 242 242 233 199 165 149 133 127 123 123 124 130 137 144 146 146 145 145 146 148 147 147 150 160 164 164 163 164 162 161 167 179 188 190 193 201 210 220 235 244 248 256
245 241 221 184 152 141 143 131 126 127 125 127 129 134 135 135 135 139 145 149 149 152 156 159 163 162 161 161 163 165 167 176 188 190 194 198 203 212 232 242 251 263 267
229 207 196 175 160 158 154 143 137 130 126 128 129 138 143 142 144 147 150 155 158 160 160 161 161 162 163 164 165 169 175 180 184 190 196 202 210 222 238 252 261 260 260
215 197 191 185 169 164 160 152 145 143 141 138 135 142 151 141 144 146 148 152 159 163 164 163 162 168 173 172 173 178 181 185 188 193 202 214 230 239 244 247 248 251 257
220 195 188 182 175 168 161 158 152 150 151 148 150 150 155 152 151 148 151 156 159 163 165 166 165 167 174 182 189 189 187 189 196 210 227 238 240 234 236 242 248 253 258
208 198 191 183 177 175 174 168 165 164 160 164 163 163 164 158 156 157 159 160 160 161 164 168 173 176 177 182 186 188 190 200 217 232 239 240 233 236 234 243 250 257 262
207 195 192 189 183 181 175 173 173 171 168 167 168 171 168 162 160 159 161 163 168 172 173 171 174 178 181 188 193 194 199 215 233 240 239 239 238 241 244 248 254 260 263
214 203 197 192 187 183 180 176 176 175 176 173 174 173 171 168 169 170 170 171 172 172 174 180 181 186 190 188 190 198 214 230 238 242 244 243 244 243 248 255 258 260 266